Weather History for Taylorville, IL

Change the Weather History Date:

Sunday, October 7, 2012

  Actual Average (KSPI) Record (KSPI)
Temperature  
Mean Temperature 42 °F 58 °F  
Max Temperature 51 °F 70 °F 91 °F (1963)
Min Temperature 32 °F 46 °F 25 °F (1952)
Degree Days  
Heating Degree Days 24 8  
Month to date heating degree days 51  
Since 1 July heating degree days 132  
Cooling Degree Days 0 1  
Month to date cooling degree days 9  
Year to date cooling degree days 1108  
Moisture  
Dew Point 31 °F    
Average Humidity 72    
Maximum Humidity 93    
Minimum Humidity 40    
Precipitation  
Precipitation 0.00 in 0.09 in 2.27 in (1984)
Month to date precipitation 0.69  
Year to date precipitation 29.24  
Snow  
Snow 0.00 in 0.00 in 0.00 in ()
Month to date snowfall 0.0  
Since 1 July snowfall 0.0  
Since 1 September snowfall 0.0  
Snow Depth -    
Sea Level Pressure  
Sea Level Pressure 30.20 in    
Wind  
Wind Speed 4 mph (West)    
Max Wind Speed 13 mph    
Max Gust Speed 17 mph    
Visibility 10 miles    
Events      
T = Trace of Precipitation, MM = Missing Value Source: NWS Daily Summary

Daily Weather History Graph

Daily Weather History Graph

Search for Another Location

Airport:

Trip Planner

Search our weather history database for the weather conditions in past years. The results will help you decide how hot, cold, wet, or windy it might be!

Date:

Astronomy

Oct. 07, 2012 Rise Set
Actual Time 6:59 AM CDT 6:29 PM CDT
Civil Twilight 6:32 AM CDT 6:56 PM CDT
Nautical Twilight 6:01 AM CDT 7:27 PM CDT
Astronomical Twilight 5:30 AM CDT 7:58 PM CDT
Moon 11:42 PM CDT (10/7) 1:35 PM CDT (10/7)
Length of Visible Light 12h 23m
Length of Day
11h 29m
Waning Gibbous, 56% of the Moon is Illuminated
Oct 7
Waning Gibbous
Oct 8
Last Quarter
Oct 15
New
Oct 21
First Quarter
Oct 29
Full

Hourly Weather History & Observations

Time (CDT) Temp. Windchill Dew Point Humidity Pressure Visibility Wind Dir Wind Speed Gust Speed Precip Events Conditions
12:15 AM 37.4 °F 33.8 °F 33.8 °F 87% 30.21 in 10.0 mi West 4.6 mph - N/A   Mostly Cloudy
12:35 AM 37.4 °F 34.9 °F 33.8 °F 87% 30.21 in 10.0 mi WNW 3.5 mph - N/A   Overcast
12:55 AM 37.4 °F - 33.8 °F 87% 30.21 in 10.0 mi Calm Calm - N/A   Overcast
1:15 AM 37.4 °F - 33.8 °F 87% 30.21 in 10.0 mi Calm Calm - N/A   Overcast
1:35 AM 37.4 °F 34.9 °F 33.8 °F 87% 30.22 in 10.0 mi West 3.5 mph - N/A   Overcast
1:55 AM 37.4 °F 34.9 °F 35.6 °F 93% 30.22 in 10.0 mi West 3.5 mph - N/A   Overcast
2:15 AM 37.4 °F 34.9 °F 35.6 °F 93% 30.22 in 10.0 mi West 3.5 mph - N/A   Scattered Clouds
2:35 AM 37.4 °F - 35.6 °F 93% 30.21 in 10.0 mi Calm Calm - N/A   Scattered Clouds
2:55 AM 37.4 °F - 35.6 °F 93% 30.21 in 10.0 mi Calm Calm - N/A   Mostly Cloudy
3:15 AM 37.4 °F - 35.6 °F 93% 30.20 in 10.0 mi Calm Calm - N/A   Scattered Clouds
3:35 AM 37.4 °F 34.9 °F 35.6 °F 93% 30.20 in 10.0 mi WSW 3.5 mph - N/A   Mostly Cloudy
3:55 AM 37.4 °F 34.9 °F 35.6 °F 93% 30.20 in 10.0 mi West 3.5 mph - N/A   Mostly Cloudy
4:15 AM 37.4 °F - 35.6 °F 93% 30.21 in 10.0 mi Calm Calm - N/A   Overcast
4:35 AM 37.4 °F 33.8 °F 35.6 °F 93% 30.21 in 10.0 mi West 4.6 mph - N/A   Overcast
4:55 AM 37.4 °F 34.9 °F 35.6 °F 93% 30.21 in 10.0 mi West 3.5 mph - N/A   Overcast
5:15 AM 37.4 °F 34.9 °F 35.6 °F 93% 30.20 in 10.0 mi West 3.5 mph - N/A   Overcast
5:35 AM 37.4 °F 34.9 °F 35.6 °F 93% 30.20 in 10.0 mi West 3.5 mph - N/A   Scattered Clouds
5:55 AM 37.4 °F 34.9 °F 35.6 °F 93% 30.20 in 10.0 mi West 3.5 mph - N/A   Scattered Clouds
6:15 AM 37.4 °F 34.9 °F 33.8 °F 87% 30.20 in 10.0 mi West 3.5 mph - N/A   Clear
6:35 AM 35.6 °F 30.7 °F 33.8 °F 93% 30.21 in 10.0 mi West 5.8 mph - N/A   Clear
6:55 AM 35.6 °F 30.7 °F 33.8 °F 93% 30.21 in 10.0 mi West 5.8 mph - N/A   Clear
7:15 AM 35.6 °F 30.7 °F 33.8 °F 93% 30.21 in 10.0 mi West 5.8 mph - N/A   Clear
7:35 AM 35.6 °F 30.7 °F 33.8 °F 93% 30.21 in 10.0 mi West 5.8 mph - N/A   Clear
7:55 AM 35.6 °F 29.9 °F 33.8 °F 93% 30.22 in 10.0 mi West 6.9 mph - N/A   Clear
8:15 AM 37.4 °F 32.1 °F 33.8 °F 87% 30.22 in 10.0 mi West 6.9 mph - N/A   Clear
8:35 AM 39.2 °F 33.6 °F 33.8 °F 81% 30.23 in 10.0 mi WNW 8.1 mph - N/A   Clear
8:55 AM 39.2 °F 33.6 °F 33.8 °F 81% 30.24 in 10.0 mi WNW 8.1 mph - N/A   Clear
9:15 AM 41.0 °F 37.1 °F 33.8 °F 76% 30.24 in 10.0 mi WNW 5.8 mph - N/A   Clear
9:35 AM 42.8 °F 38.0 °F 33.8 °F 70% 30.24 in 10.0 mi NW 8.1 mph - N/A   Clear
9:55 AM 44.6 °F 40.2 °F 32.0 °F 61% 30.25 in 10.0 mi NW 8.1 mph - N/A   Clear
10:15 AM 44.6 °F 40.7 °F 30.2 °F 57% 30.24 in 10.0 mi NW 6.9 mph - N/A   Clear
10:35 AM 44.6 °F 40.2 °F 30.2 °F 57% 30.25 in 10.0 mi West 8.1 mph - N/A   Mostly Cloudy
10:55 AM 46.4 °F 41.5 °F 28.4 °F 50% 30.25 in 10.0 mi WNW 10.4 mph 16.1 mph N/A   Mostly Cloudy
11:15 AM 48.2 °F - 30.2 °F 50% 30.25 in 10.0 mi WNW 8.1 mph - N/A   Mostly Cloudy
11:35 AM 48.2 °F - 28.4 °F 46% 30.25 in 10.0 mi NW 9.2 mph - N/A   Mostly Cloudy
11:55 AM 48.2 °F - 28.4 °F 46% 30.25 in 10.0 mi West 11.5 mph - N/A   Scattered Clouds
12:15 PM 48.2 °F - 28.4 °F 46% 30.24 in 10.0 mi West 9.2 mph - N/A   Scattered Clouds
12:35 PM 50.0 °F - 30.2 °F 47% 30.24 in 10.0 mi West 10.4 mph - N/A   Mostly Cloudy
12:55 PM 46.4 °F 42.4 °F 28.4 °F 50% 30.23 in 10.0 mi NW 8.1 mph 17.3 mph N/A   Mostly Cloudy
1:15 PM 46.4 °F 40.7 °F 28.4 °F 50% 30.22 in 10.0 mi NW 12.7 mph 17.3 mph N/A   Mostly Cloudy
1:35 PM 46.4 °F 44.3 °F 28.4 °F 50% 30.21 in 10.0 mi WNW 4.6 mph 9.2 mph N/A   Scattered Clouds
1:55 PM 48.2 °F - 28.4 °F 46% 30.21 in 10.0 mi West 6.9 mph - N/A   Scattered Clouds
2:15 PM 46.4 °F 41.9 °F 28.4 °F 50% 30.20 in 10.0 mi WNW 9.2 mph - N/A   Scattered Clouds
2:35 PM 51.8 °F - 30.2 °F 44% 30.20 in 10.0 mi WSW 11.5 mph - N/A   Scattered Clouds
2:55 PM 48.2 °F - 28.4 °F 46% 30.20 in 10.0 mi West 10.4 mph - N/A   Scattered Clouds
3:15 PM 51.8 °F - 28.4 °F 41% 30.19 in 10.0 mi WSW 9.2 mph - N/A   Scattered Clouds
3:35 PM 51.8 °F - 28.4 °F 41% 30.18 in 10.0 mi WNW 10.4 mph 16.1 mph N/A   Scattered Clouds
3:55 PM 50.0 °F - 26.6 °F 40% 30.17 in 10.0 mi West 10.4 mph 16.1 mph N/A   Clear
4:15 PM 48.2 °F - 26.6 °F 43% 30.17 in 10.0 mi West 5.8 mph 16.1 mph N/A   Clear
4:35 PM 50.0 °F - 28.4 °F 43% 30.16 in 10.0 mi West 5.8 mph - N/A   Clear
4:55 PM 50.0 °F - 26.6 °F 40% 30.16 in 10.0 mi WNW 6.9 mph - N/A   Clear
5:15 PM 50.0 °F - 26.6 °F 40% 30.17 in 10.0 mi West 4.6 mph - N/A   Clear
5:35 PM 48.2 °F - 26.6 °F 43% 30.17 in 10.0 mi NW 5.8 mph - N/A   Clear
5:55 PM 48.2 °F - 26.6 °F 43% 30.17 in 10.0 mi West 5.8 mph - N/A   Clear
6:15 PM 46.4 °F 45.2 °F 28.4 °F 50% 30.17 in 10.0 mi West 3.5 mph - N/A   Clear
6:35 PM 44.6 °F - 26.6 °F 49% 30.17 in 10.0 mi Calm Calm - N/A   Clear
6:55 PM 42.8 °F - 28.4 °F 57% 30.17 in 10.0 mi Calm Calm - N/A   Clear
7:15 PM 41.0 °F - 30.2 °F 65% 30.17 in 10.0 mi Calm Calm - N/A   Clear
7:35 PM 39.2 °F - 32.0 °F 75% 30.17 in 10.0 mi Calm Calm - N/A   Clear
7:55 PM 37.4 °F - 30.2 °F 75% 30.18 in 10.0 mi Calm Calm - N/A   Clear
8:15 PM 37.4 °F - 30.2 °F 75% 30.19 in 10.0 mi Calm Calm - N/A   Clear
8:35 PM 35.6 °F - 30.2 °F 81% 30.19 in 10.0 mi Calm Calm - N/A   Clear
8:55 PM 35.6 °F - 30.2 °F 81% 30.19 in 10.0 mi Calm Calm - N/A   Clear
9:15 PM 33.8 °F - 30.2 °F 87% 30.20 in 10.0 mi Calm Calm - N/A   Clear
9:35 PM 33.8 °F - 30.2 °F 87% 30.20 in 10.0 mi Calm Calm - N/A   Clear
9:55 PM 33.8 °F - 32.0 °F 93% 30.19 in 10.0 mi Calm Calm - N/A   Clear
10:15 PM 33.8 °F - 32.0 °F 93% 30.19 in 10.0 mi Calm Calm - N/A   Clear
10:35 PM 33.8 °F - 32.0 °F 93% 30.19 in 10.0 mi Calm Calm - N/A   Clear
10:55 PM 33.8 °F - 30.2 °F 87% 30.19 in 10.0 mi Calm Calm - N/A   Clear
11:15 PM 32.0 °F - 30.2 °F 93% 30.18 in 10.0 mi Calm Calm - N/A   Clear
11:35 PM 32.0 °F - 30.2 °F 93% 30.19 in 10.0 mi Calm Calm - N/A   Clear
11:55 PM 32.0 °F - 30.2 °F 93% 30.18 in 10.0 mi Calm Calm - N/A   Clear